Simultaneous Nadir Overpasses (SNOs) Predictions

Prediction of SNOs between GOES-15 and LANDSAT-8 Satellite Orbit:

Table of predicted SNOs for the next 14.0 days since TLE Epoch: 7/27/2024
Index Date Time (GOES-15) GOES-15 Lat,Lon LANDSAT-8 Lat,Lon Distance(km) Time Diff (sec)
1 07/28/2024 18:01:55 0.03, 61.34 0.31, 62.77 161.83 80
2 07/29/2024 06:20:32 -0.07, 61.24 0.70, 57.59 413.83 80
3 07/30/2024 17:49:44 0.01, 61.39 0.97, 65.72 493.94 80
4 07/31/2024 06:08:20 -0.06, 61.28 0.09, 60.56 81.86 80
5 08/02/2024 05:58:48 -0.05, 61.33 -0.54, 63.52 249.72 80
6 08/02/2024 18:17:32 0.10, 61.46 -0.57, 58.34 355.53 80
7 08/04/2024 18:05:19 0.09, 61.51 0.02, 61.31 23.92 80
8 08/06/2024 17:55:47 0.09, 61.56 0.70, 64.26 308.07 80
9 08/07/2024 06:14:22 -0.13, 61.46 0.34, 59.10 267.50 80
10 08/09/2024 06:04:49 -0.13, 61.51 -0.23, 62.08 64.43 80
